When you browse on this site, cookies collect data to enhance your experience and personalize the content and advertising you see.
Visit our Privacy Policy to learn more. By continuing to use the site, you agree to this use of cookies and data.
  • în România
  • Lista ţărilor
  • Pe 7 zile
  • Temperatura apei
  • Hartă satelitară
  • Meteo pe hartă
  • Widget-uri
  • user-avatar
    Intrare

    Meteo pe oră la Arpajon

    Astăzi, 26 Aprilie, Vineri

    Timp Temperatura Precipitaţii Vânt Presiune Umiditate
    00:00 +7°C° 0 mm 4 m/s 749 mmHg 85%
    01:00 +8°C° 0 mm 3 m/s 749 mmHg 85%
    02:00 +8°C° 0 mm 3 m/s 749 mmHg 85%
    03:00 +7°C° 0 mm 3 m/s 749 mmHg 86%
    04:00 +8°C° 0 mm 2 m/s 749 mmHg 85%
    05:00 +8°C° 0 mm 2 m/s 750 mmHg 84%
    06:00 +9°C° 0 mm 1 m/s 750 mmHg 83%
    07:00 +10°C° 0 mm 2 m/s 750 mmHg 77%
    08:00 +12°C° 0 mm 2 m/s 751 mmHg 70%
    09:00 +14°C° 0 mm 2 m/s 751 mmHg 64%
    10:00 +14°C° 0.1 mm 3 m/s 751 mmHg 60%
    11:00 +16°C° 0.1 mm 3 m/s 751 mmHg 57%
    12:00 +18°C° 0.1 mm 3 m/s 751 mmHg 53%
    13:00 +17°C° 0.5 mm 3 m/s 751 mmHg 55%
    14:00 +17°C° 0.5 mm 3 m/s 751 mmHg 56%
    15:00 +17°C° 0.5 mm 3 m/s 751 mmHg 58%
    16:00 +17°C° 0.3 mm 3 m/s 752 mmHg 61%
    17:00 +16°C° 0.3 mm 3 m/s 752 mmHg 65%
    18:00 +16°C° 0.3 mm 3 m/s 752 mmHg 68%
    19:00 +13°C° 0.1 mm 3 m/s 753 mmHg 73%
    20:00 +12°C° 0.1 mm 3 m/s 754 mmHg 78%
    21:00 +11°C° 0.1 mm 3 m/s 754 mmHg 83%
    22:00 +11°C° 0 mm 4 m/s 754 mmHg 83%
    23:00 +11°C° 0 mm 4 m/s 754 mmHg 83%

    Mâine, 27 Aprilie, Sâmbătă

    Timp Temperatura Precipitaţii Vânt Presiune Umiditate
    00:00 +10°C° 0 mm 5 m/s 754 mmHg 83%
    01:00 +9°C° 0.1 mm 5 m/s 754 mmHg 84%
    02:00 +8°C° 0.1 mm 5 m/s 754 mmHg 86%
    03:00 +8°C° 0.1 mm 6 m/s 754 mmHg 87%
    04:00 +8°C° 0.2 mm 6 m/s 754 mmHg 86%
    05:00 +8°C° 0.2 mm 6 m/s 754 mmHg 84%
    06:00 +9°C° 0.2 mm 6 m/s 754 mmHg 82%
    07:00 +9°C° 0.1 mm 6 m/s 755 mmHg 74%
    08:00 +10°C° 0.1 mm 7 m/s 755 mmHg 67%
    09:00 +10°C° 0.1 mm 7 m/s 755 mmHg 59%
    10:00 +10°C° 0.2 mm 7 m/s 756 mmHg 57%
    11:00 +11°C° 0.2 mm 7 m/s 756 mmHg 55%
    12:00 +11°C° 0.2 mm 7 m/s 756 mmHg 53%
    13:00 +11°C° 0.1 mm 7 m/s 756 mmHg 53%
    14:00 +11°C° 0.1 mm 7 m/s 756 mmHg 52%
    15:00 +11°C° 0.1 mm 7 m/s 757 mmHg 52%
    16:00 +11°C° 0.1 mm 6 m/s 757 mmHg 56%
    17:00 +10°C° 0.1 mm 5 m/s 757 mmHg 60%
    18:00 +9°C° 0.1 mm 5 m/s 757 mmHg 64%
    19:00 +10°C° 0.1 mm 4 m/s 758 mmHg 66%
    20:00 +8°C° 0.1 mm 4 m/s 758 mmHg 69%
    21:00 +7°C° 0.1 mm 4 m/s 758 mmHg 72%
    22:00 +7°C° 0 mm 5 m/s 758 mmHg 73%
    23:00 +7°C° 0 mm 5 m/s 758 mmHg 75%

    Poimâine, 28 Aprilie, Duminică

    Timp Temperatura Precipitaţii Vânt Presiune Umiditate
    00:00 +6°C° 0 mm 5 m/s 758 mmHg 76%
    01:00 +6°C° 0 mm 5 m/s 758 mmHg 77%
    02:00 +6°C° 0 mm 5 m/s 758 mmHg 78%
    03:00 +6°C° 0 mm 5 m/s 758 mmHg 79%
    04:00 +6°C° 0.1 mm 5 m/s 758 mmHg 79%
    05:00 +6°C° 0.1 mm 5 m/s 758 mmHg 80%
    06:00 +6°C° 0.1 mm 5 m/s 758 mmHg 81%
    07:00 +7°C° 0.2 mm 5 m/s 758 mmHg 77%
    08:00 +8°C° 0.2 mm 5 m/s 758 mmHg 73%
    09:00 +9°C° 0.2 mm 6 m/s 758 mmHg 69%
    10:00 +9°C° 0.2 mm 6 m/s 758 mmHg 67%
    11:00 +10°C° 0.2 mm 6 m/s 757 mmHg 66%
    12:00 +10°C° 0.2 mm 6 m/s 757 mmHg 64%
    13:00 +11°C° 0.2 mm 6 m/s 757 mmHg 63%
    14:00 +11°C° 0.2 mm 6 m/s 757 mmHg 62%
    15:00 +11°C° 0.2 mm 6 m/s 757 mmHg 60%
    16:00 +12°C° 0.1 mm 5 m/s 756 mmHg 64%
    17:00 +11°C° 0.1 mm 4 m/s 756 mmHg 68%
    18:00 +10°C° 0.1 mm 3 m/s 756 mmHg 72%
    19:00 +9°C° 0 mm 3 m/s 756 mmHg 77%
    20:00 +9°C° 0 mm 3 m/s 756 mmHg 81%
    21:00 +8°C° 0 mm 3 m/s 757 mmHg 86%
    22:00 +8°C° 0 mm 3 m/s 757 mmHg 88%
    23:00 +7°C° 0 mm 3 m/s 756 mmHg 90%

    29 Aprilie, Luni

    Timp Temperatura Precipitaţii Vânt Presiune Umiditate
    00:00 +7°C° 0 mm 3 m/s 756 mmHg 92%
    01:00 +7°C° 0 mm 2 m/s 756 mmHg 93%
    02:00 +6°C° 0 mm 2 m/s 756 mmHg 93%
    03:00 +6°C° 0 mm 2 m/s 756 mmHg 93%
    04:00 +7°C° 0 mm 2 m/s 756 mmHg 92%
    05:00 +8°C° 0 mm 1 m/s 756 mmHg 91%
    06:00 +9°C° 0 mm 1 m/s 756 mmHg 89%
    07:00 +10°C° 0 mm 1 m/s 756 mmHg 82%
    08:00 +11°C° 0 mm 1 m/s 756 mmHg 76%
    09:00 +13°C° 0 mm 1 m/s 756 mmHg 69%
    10:00 +14°C° 0.1 mm 1 m/s 756 mmHg 63%
    11:00 +15°C° 0.1 mm 1 m/s 756 mmHg 57%
    12:00 +16°C° 0.1 mm 1 m/s 756 mmHg 51%
    13:00 +16°C° 0 mm 1 m/s 756 mmHg 48%
    14:00 +18°C° 0 mm 1 m/s 756 mmHg 46%
    15:00 +16°C° 0 mm 0 m/s 755 mmHg 43%
    16:00 +16°C° 0 mm 1 m/s 755 mmHg 49%
    17:00 +16°C° 0 mm 1 m/s 755 mmHg 54%
    18:00 +15°C° 0 mm 1 m/s 755 mmHg 59%
    19:00 +14°C° 0 mm 2 m/s 756 mmHg 64%
    20:00 +12°C° 0 mm 2 m/s 756 mmHg 69%
    21:00 +10°C° 0 mm 2 m/s 756 mmHg 74%
    22:00 +10°C° 0 mm 2 m/s 756 mmHg 77%
    23:00 +9°C° 0 mm 2 m/s 756 mmHg 80%

    30 Aprilie, Marţi

    Timp Temperatura Precipitaţii Vânt Presiune Umiditate
    00:00 +8°C° 0 mm 2 m/s 756 mmHg 84%
    01:00 +9°C° 0 mm 1 m/s 756 mmHg 85%
    02:00 +8°C° 0 mm 1 m/s 756 mmHg 85%
    03:00 +8°C° 0 mm 1 m/s 756 mmHg 86%
    04:00 +8°C° 0 mm 1 m/s 756 mmHg 85%
    05:00 +9°C° 0 mm 1 m/s 756 mmHg 84%
    06:00 +8°C° 0 mm 2 m/s 756 mmHg 83%
    07:00 +10°C° 0 mm 2 m/s 756 mmHg 75%
    08:00 +13°C° 0 mm 2 m/s 756 mmHg 67%
    09:00 +15°C° 0 mm 2 m/s 756 mmHg 60%
    10:00 +16°C° 0 mm 2 m/s 756 mmHg 54%
    11:00 +17°C° 0 mm 2 m/s 756 mmHg 49%
    12:00 +18°C° 0 mm 2 m/s 756 mmHg 43%
    13:00 +18°C° 0 mm 2 m/s 755 mmHg 42%
    14:00 +19°C° 0 mm 2 m/s 755 mmHg 42%
    15:00 +19°C° 0 mm 2 m/s 754 mmHg 41%
    16:00 +18°C° 0 mm 2 m/s 754 mmHg 46%
    17:00 +17°C° 0 mm 2 m/s 754 mmHg 51%
    18:00 +16°C° 0 mm 2 m/s 754 mmHg 56%
    19:00 +15°C° 0 mm 2 m/s 754 mmHg 58%
    20:00 +14°C° 0 mm 2 m/s 754 mmHg 60%
    21:00 +13°C° 0 mm 1 m/s 754 mmHg 63%
    22:00 +12°C° 0 mm 1 m/s 754 mmHg 64%
    23:00 +12°C° 0 mm 1 m/s 753 mmHg 66%

    1 Mai, Miercuri

    Timp Temperatura Precipitaţii Vânt Presiune Umiditate
    00:00 +11°C° 0 mm 1 m/s 753 mmHg 68%
    01:00 +11°C° 0 mm 1 m/s 753 mmHg 69%
    02:00 +11°C° 0 mm 1 m/s 752 mmHg 69%
    03:00 +11°C° 0 mm 1 m/s 752 mmHg 70%
    04:00 +11°C° 0 mm 1 m/s 752 mmHg 71%
    05:00 +11°C° 0 mm 1 m/s 752 mmHg 72%
    06:00 +10°C° 0 mm 2 m/s 752 mmHg 74%
    07:00 +13°C° 0 mm 2 m/s 752 mmHg 69%
    08:00 +15°C° 0 mm 2 m/s 751 mmHg 65%
    09:00 +16°C° 0 mm 2 m/s 751 mmHg 60%
    10:00 +18°C° 0 mm 2 m/s 751 mmHg 56%
    11:00 +19°C° 0 mm 2 m/s 751 mmHg 51%
    12:00 +20°C° 0 mm 2 m/s 751 mmHg 46%
    13:00 +20°C° 0 mm 2 m/s 750 mmHg 47%
    14:00 +20°C° 0 mm 2 m/s 750 mmHg 48%
    15:00 +20°C° 0 mm 2 m/s 749 mmHg 49%
    16:00 +19°C° 0 mm 2 m/s 749 mmHg 53%
    17:00 +19°C° 0 mm 2 m/s 749 mmHg 56%
    18:00 +18°C° 0 mm 2 m/s 749 mmHg 60%
    19:00 +17°C° 0 mm 2 m/s 749 mmHg 64%
    20:00 +16°C° 0 mm 2 m/s 749 mmHg 67%
    21:00 +14°C° 0 mm 2 m/s 749 mmHg 71%
    22:00 +14°C° 0 mm 2 m/s 749 mmHg 74%
    23:00 +13°C° 0 mm 2 m/s 749 mmHg 76%
    Arată mai mult